www.pogodaiklimat.ru

Погода и климат >> Архив погоды >> Канада >> Chris Hadfield


ПОГОДА в Chris Hadfield

  • Прогноз погоды в Chris Hadfield
  • Монитор погоды в Chris Hadfield
  • Климат города

АРХИВ ПОГОДЫ в Chris Hadfield

Время (UTC), дата Ветер
(напр.,м/с)
 
Видим.   Явления Облачность Т
(С)
Тd
(С)
f
(%)
Тe
(С)
Тes
(С)
Комфортность P
(гПа)
Po
(гПа)
Тmin
(С)
Tmax
(С)
R
(мм)
R24
(мм)
S
(см)
03 16.07 ЮЗ 1 12 км ясно +23.2 +21.7 91 +31 +33 очень
душно
1014.0 992.7
06 16.07 Ю 1 16 км ясно +22.5 +20.6 89 +29 +30 очень
душно
1013.4 992.2 +20.5 +31.1 0
09 16.07 ЮВ 2 14 км 9/0
[]
+22.1 +20.2 89 +28 +29 душно 1012.7 991.5
12 16.07 ЮЗ 3 9000 м дымка ясно +24.9 +22.4 86 +33 +34 очень
душно
1012.9 991.7 +21.3 +31.1
15 16.07 З 4 16 км ясно +29.4 +22.7 67 +39 +42 очень
душно
1012.6 991.4
18 16.07 ЮЗ 5 16 км 3/3 1000 м
[]
+32.4 +21.9 54 +41 +43 опасность
перегрева
1010.7 989.6 +21.3 +32.4
21 16.07 СВ 10 2000 м гроза 10/10 300 м
[]
+22.7 +18.8 79 +29 +29 очень
душно
1010.5 989.2
00 17.07 ЮЗ 1 16 км {осадки} ясно +23.7 +22.1 91 +31 +35 очень
душно
1010.4 989.2 +21.3 +32.8 11
03 17.07 Ю 2 6000 м дымка 5/0
[]
+21.8 +21.3 97 +28 +29 душно 1011.0 989.8
06 17.07 С 7 16 км 9/9 300 м
[]
+21.9 +19.7 87 +27 +27 душно 1011.2 990.0 +21.3 +32.8 213
09 17.07 С 5 16 км ясно +20.3 +15.0 72 +23 +23 комфорт 1012.4 991.0
12 17.07 С 4 16 км ясно +21.1 +17.1 78 +25 +26 комфорт 1014.0 992.6 +19.4 +32.8
15 17.07 С 5 16 км 9/9 1500 м
[]
+22.5 +14.8 62 +26 +26 жарко 1015.1 993.7
18 17.07 СВ 5 16 км ясно +23.5 +14.6 57 +26 +29 жарко 1015.3 993.9 +19.4 +23.8
21 17.07 СВ 5 16 км ясно +22.0 +14.6 63 +25 +28 комфорт 1015.6 994.1
00 18.07 С 6 16 км ясно +20.4 +14.3 68 +23 +24 комфорт 1016.2 994.7 +19.4 +23.8
03 18.07 С 4 16 км ясно +17.4 +14.8 85 +17 +18 1017.3 995.8
06 18.07 С 4 16 км ясно +17.5 +14.6 83 +17 +18 1018.2 996.7 +16.7 +23.8 8
09 18.07 С 5 16 км ясно +17.8 +14.7 82 +17 +18 1018.2 996.6
12 18.07 СЗ 3 16 км ясно +18.0 +16.0 88 +18 +20 1019.6 998.0 +15.6 +23.8
15 18.07 СВ 4 16 км ясно +21.0 +13.9 64 +24 +27 комфорт 1019.9 998.3
18 18.07 СВ 5 16 км ясно +21.9 +12.4 55 +24 +28 комфорт 1019.7 998.1 +15.6 +22.2
21 18.07 СВ 5 16 км ясно +22.1 +11.7 52 +24 +27 комфорт 1018.6 997.0
00 19.07 СВ 4 16 км ясно +19.9 +12.1 61 +22 +24 комфорт 1018.2 996.6 +15.6 +22.8
03 19.07 В 1 16 км ясно +16.8 +11.7 72 +18 +19 1018.5 996.9
06 19.07 Ю 2 16 км ясно +15.1 +10.9 76 +15 +16 1018.5 996.9 +13.9 +22.8 23
09 19.07 Ю 1 16 км ясно +13.1 +9.7 80 +13 +14 1018.6 996.9
12 19.07 Ю 2 16 км ясно +18.1 +11.7 66 +19 +21 1019.1 997.5 +12.4 +22.8
15 19.07 Ю 4 16 км 5/5 1000 м
[]
+24.9 +14.6 53 +28 +29 жарко 1018.8 997.3
18 19.07 Ю 4 16 км 9/9 1500 м
[]
+26.8 +14.3 46 +29 +30 жарко 1017.5 996.0 +12.4 +26.9
21 19.07 Ю 4 16 км 3/3 1500 м
[]
+27.0 +15.0 48 +30 +32 душно 1016.7 995.2
00 20.07 ЮВ 3 16 км ясно +25.0 +10.2 39 +26 +29 жарко 1015.7 994.3 +12.4 +27.6
03 20.07 ЮВ 4 16 км ясно +18.9 +13.2 69 +20 +21 1015.4 994.0
06 20.07 ЮВ 2 16 км ясно +17.0 +12.6 75 +17 +18 1014.6 993.2 +12.4 +27.6 21
09 20.07 ЮВ 5 16 км ясно +16.8 +14.1 84 +16 +17 1013.5 992.1
12 20.07 ЮВ 4 16 км 3/3 1500 м
[]
+21.1 +17.8 81 +25 +26 комфорт 1012.8 991.5 +15.8 +27.6
15 20.07 Ю 6 16 км 3/0
[]
+26.9 +20.0 66 +33 +34 очень
душно
1011.6 990.3
18 20.07 Ю 6 16 км 5/5 1000 м
[]
+28.8 +20.2 60 +35 +36 очень
душно
1010.4 989.1 +15.8 +29.4
21 20.07 ЮВ 6 16 км {осадки} 5/0
[]
+22.8 +20.2 85 +29 +31 очень
душно
1009.4 988.0
00 21.07 Ю 6 16 км {осадки} 10/10 300 м
[]
+23.3 +19.8 81 +30 +30 очень
душно
1009.2 987.9 +15.8 +29.7 8
03 21.07 ЮВ 4 16 км ясно +20.3 +19.2 93 +24 +25 комфорт 1008.7 987.5
06 21.07 ЮВ 4 16 км 10/0
[]
+21.3 +20.1 93 +26 +27 душно 1008.3 987.1 +15.8 +29.7 191
09 21.07 ЮВ 3 16 км 10/0
[]
+21.2 +19.5 90 +26 +26 душно 1007.4 986.1
12 21.07 ЮВ 3 16 км 10/0
[]
+21.5 +18.9 85 +26 +27 душно 1008.2 986.9 +20.3 +29.7
15 21.07 ЮВ 7 16 км 9/9 600 м
[]
+22.2 +18.2 78 +27 +27 душно 1008.9 987.6
18 21.07 ЮВ 5 12 км слаб. дождь {осадки} 10/10 300 м
[]
+20.2 +19.0 93 +24 +24 комфорт 1009.5 988.2 +19.9 +22.3 1
21 21.07 ЮВ 6 16 км {осадки} 10/10 600 м
[]
+23.6 +19.2 76 +28 +28 душно 1009.0 987.7
00 22.07 ЮВ 6 16 км {осадки} 10/10 1500 м
[]
+23.0 +18.5 76 +29 +29 очень
душно
1009.0 987.7 +20.2 +23.9 0.3
03 22.07 В 4 16 км {осадки} 9/0
[]
+21.0 +18.2 84 +26 +26 душно 1009.8 988.5
06 22.07 В 5 16 км 10/0
[]
+21.4 +18.8 85 +26 +26 душно 1009.4 988.1 +20.2 +23.9 0
09 22.07 В 4 16 км 9/0
[]
+19.8 +17.6 87 +23 +23 комфорт 1008.9 987.6
12 22.07 В 4 6000 м дождь 10/10 300 м
[]
+17.3 +16.2 93 +17 +17 1010.2 988.8 +17.3 +23.9 0.5
15 22.07 С 3 16 км слаб. дождь {осадки} 10/10 200 м
[]
+16.9 +15.7 93 +17 +17 1010.4 989.0
18 22.07 С 6 16 км слаб. дождь 10/10 1000 м
[]
+17.4 +15.8 90 +17 +17 1009.7 988.3 +16.6 +21.4 8
21 22.07 С 7 8000 м слаб. дождь {осадки} 10/10 300 м
[]
+16.9 +15.7 93 +16 +16 1009.7 988.3
00 23.07 З 2 16 км {осадки} 10/10 300 м
[]
+17.1 +16.1 94 +17 +17 1010.2 988.7 +16.0 +19.1 4

 

Местоположение метеостанции Chris Hadfield (Канада): широта 79.78 долгота -103.50 высота над уровнем моря 58 м.

В архиве по умолчанию представлена погода в Chris Hadfield за последнюю неделю. Архивные данные за месяц целиком и за предыдущие месяцы, начиная с января 2011 года, Вы можете получить, выбрав интересующий диапазон дат из раскрывающегося списка и нажав кнопку "Ввод!".


*Определитесь, кто Вы:
робот инопланетянин человек

Внимание! Время в таблицах - всемирное. Для получения местного времени необходимо прибавить поправку, которая в Chris Hadfield равна -7 ч.

Смотрите также архив погоды в соседних городах и на ближайших метеорологических станциях:

Погода в Isachsen (aut) (Канада) (111 км)
Погода в Eureka Climate (Канада) (343 км)
Погода в Eureka (Канада) (343 км)
Погода в Mould Bay Cs (Канада) (534 км)
Погода в Resolute Airport (Канада) (599 км)
Погода в Resolute Cs (Канада) (599 км)
Погода в Stefansson Island (Канада) (670 км)
Погода в Aulvik Ntl Park (Канада) (745 км)
Погода в Alert Climate (Канада) (747 км)
Погода в Kitsissut (Гренландия) (765 км)

Пояснения к столбцам:

Ветер - указаны скорость ветра в м/с - средняя за 10 мин, порывы в срок и между сроками (в фигурных скобках) и направление, откуда дует ветер: С - северный, СВ - северо-восточный, В - восточный, ЮВ - юго-восточный, Ю - южный, ЮЗ - юго-западный, З - западный, СЗ - северо-западный.
Видимость - горизонтальная дальность видимости в метрах или километрах. При видимости от 1 до 10 км при отсутствии осадков обычно наблюдается дымка, при ухудшении видимости до 1 км и менее - туман. В сухую погоду видимость может ухудшаться дымом, пылью или мглою.
Явления - указаны атмосферные явления, наблюдавшиеся в срок или в последний час перед сроком; фигурными скобками обозначены явления, наблюдавшиеся между сроками (за 1-3 часа до срока); квадратными скобками обозначены град или гололедные отложения с указанием их диаметра в мм.
Облачность - указаны через наклонную черту общая и нижняя облачность в баллах и высота нижней границы облаков в метрах; квадратными скобками обозначены формы облаков: Ci - перистые, Cs - перисто-слоистые, Cc - перисто-кучевые, Ac - высококучевые, As - высокослоистые, Sc - слоисто-кучевые, Ns - слоисто-дождевые, Cu - кучевые, Cb - кучево-дождевые. Подробнее классификацию облаков см. в Атласе облаков (PDF).
T - Температура воздуха - температура, измеренная на высоте 2 м над землей.
Td - Температура точки росы - температура, при понижении до которой содержащийся в воздухе водяной пар достигнет насыщения.
f - Относительная влажность воздуха - влажноcть воздуха, измеренная на высоте 2 м над землей.
Te - Эффективная температура - температура, которую ощущает одетый по сезону человек в тени. Характеристика душности погоды. При расчете учитывается влияние влажности воздуха и скорости ветра на теплоощущения человека.
Tes - Эффективная температура на солнце - температура, которую ощущает человек, с поправкой на солнечный нагрев. Характеристика знойности погоды. Зависит от высоты солнца над горизонтом, облачности и скорости ветра. Ночью, в пасмурную погоду, а также при ветре 12 м/с и более поправка равна нулю.
P - Атмосферное давление - приведенное к уровню моря атмосферное давление.
Po - Атмосферное давление - измеренное на уровне метеостанции атмосферное давление.
Tmin - Минимальная температура - минимум температуры воздуха на высоте 2 м над землей.
Tmax - Максимальная температура - максимум температуры воздуха на высоте 2 м над землей.
R - Количество осадков - Количество выпавших осадков за период времени, мм. При наведении курсора мыши на число - период времени, за который выпало указанное количество осадков.
R24 - Количество осадков - Количество выпавших осадков за 24 часа, мм.
S - Снежный покров - Высота снежного покрова, см. При наведении курсора мыши на число - состояние снежного покрова и степень покрытия местности в баллах.